Location: Pedimozza
(42.0500°N, 9.3500°E)
Time: 01:28:17
(UTC+00:00)

Resurs 1-3 - Pass Details

Date: 19 August 2019
Orbit: 630 x 632 km, 98.0° (Epoch: 23 October)

Event Time Altitude Azimuth Distance (km) Brightness Sun altitude
Exits shadow 19:49:55 12° 179° (S) 1,860 5.7 -16.2°
Maximum altitude 19:53:52 61° 259° (WSW) 721 4.0 -16.8°
Drops below altitude 10° 19:58:14 10° 340° (NNW) 2,021 7.0 -17.4°
Sets 20:00:28 0° 344° (NNW) 2,934 7.9 -17.7°
